"Pseudo-MPEC" for P11WLgY

Created 2024 Aug 6 12:22:07 UT using Find_Orb

Click here for an explanation of pseudo-MPECs

 
 Astrometry: 
     P11WLgY* C2024 08 01.38544020 20 00.818-31 34 28.65   ~81Gq 21.31wXNEOCPF51
     P11WLgY  C2024 08 01.40498520 19 43.411-31 34 06.95   ~81Gq 21.33wXNEOCPF51
     P11WLgY  C2024 08 01.41474820 19 34.670-31 33 55.17   ~81Gq 20.81wXNEOCPF51

Station data:
(F51) Pan-STARRS 1, Haleakala  (N20.707234 W156.255910)  US/Hawaii.
   Observers J. Bulger, T. Lowe, A. Schultz, M. Willman. Measurers K.
   Chambers, S. Chastel, T. de Boer, L. Denneau, J. Fairlamb, H. Flewelling,
   M. Huber, C.-C. Lin, E. Magnier, Y. Ramanjooloo, R. Wainscoat, R. Weryk.
   1.8-m Ritchey-Chrétien + CCD.

Orbital elements:  P11WLgY
   Perihelion 2024 Jun 5.53547 +/- 80.9 TT = 12:51:04 (JD 2460467.03547)
Epoch 2024 Aug  1.0 TT = JDT 2460523.5   Earth MOID: 0.0775   Ve: 0.0680
M  71.27557271 +/- 90               Me: 0.0500   Ma: 0.0230      AutoNEOCP
n   1.26230707 +/- 0.68             Peri.  186.03903 +/- 60
a   0.84792877 +/- 0.305            Node   310.70771 +/- 58
e   0.9567626 +/- 0.214             Incl.   35.02366 +/- 55
P   0.781/285.187d         H 22.92  G  0.15   U 12.5  SR
q 0.03666216 +/- 0.389    Q 1.65919538 +/- 11.7           (J2000 ecliptic)
From 3 observations 2024 Aug. 1 (42.2 min); mean residual 0".24
Residuals in arcseconds: 
240801 F51  .11-  .11+    240801 F51  .32+  .34-    240801 F51  .21-  .23+    

Ephemerides (geocentric):
Date (UTC) HH   RA             Dec           delta  r     elong  mag " sig PA
---- --------  ------------   ------------  ------ ------ -----  --- --------
2024 08 06 12  19 23 30.965   -29 26 46.03  .31072 1.2990 153.1 22.0  30d  66
2024 08 06 13  19 23 10.760   -29 25 40.09  .31136 1.2994 153.0 22.0  31d  66
2024 08 06 14  19 22 50.651   -29 24 34.21  .31200 1.2998 152.9 22.0  31d  66
2024 08 06 15  19 22 30.637   -29 23 28.37  .31265 1.3002 152.8 22.0  31d  66
2024 08 06 16  19 22 10.719   -29 22 22.59  .31329 1.3006 152.7 22.0  31d  66
2024 08 06 17  19 21 50.895   -29 21 16.87  .31393 1.3010 152.6 22.0  31d  66
2024 08 06 18  19 21 31.165   -29 20 11.21  .31458 1.3014 152.5 22.0  31d  66
2024 08 06 19  19 21 11.528   -29 19 05.60  .31522 1.3018 152.4 22.0  31d  66
2024 08 06 20  19 20 51.985   -29 18 00.05  .31587 1.3022 152.3 22.0  31d  66
2024 08 06 21  19 20 32.534   -29 16 54.56  .31652 1.3026 152.2 22.0  31d  66
2024 08 06 22  19 20 13.175   -29 15 49.14  .31716 1.3030 152.1 22.0  31d  66
2024 08 06 23  19 19 53.908   -29 14 43.78  .31781 1.3034 152.0 22.0  31d  66
2024 08 07 00  19 19 34.732   -29 13 38.49  .31846 1.3038 151.9 22.1  31d  66
2024 08 07 01  19 19 15.646   -29 12 33.26  .31911 1.3042 151.8 22.1  31d  66
2024 08 07 02  19 18 56.651   -29 11 28.10  .31976 1.3046 151.7 22.1  31d  66
2024 08 07 03  19 18 37.745   -29 10 23.01  .32041 1.3050 151.6 22.1  31d  66
2024 08 07 04  19 18 18.928   -29 09 17.99  .32106 1.3054 151.6 22.1  31d  66
2024 08 07 05  19 18 00.200   -29 08 13.04  .32172 1.3058 151.5 22.1  32d  66
2024 08 07 06  19 17 41.561   -29 07 08.17  .32237 1.3062 151.4 22.1  32d  66
2024 08 07 07  19 17 23.009   -29 06 03.37  .32302 1.3066 151.3 22.1  32d  66
2024 08 07 08  19 17 04.544   -29 04 58.64  .32368 1.3070 151.2 22.1  32d  66
2024 08 07 09  19 16 46.167   -29 03 53.99  .32433 1.3074 151.1 22.1  32d  66
2024 08 07 10  19 16 27.875   -29 02 49.41  .32498 1.3078 151.0 22.1  32d  66
2024 08 07 11  19 16 09.670   -29 01 44.92  .32564 1.3082 150.9 22.1  32d  66
2024 08 07 12  19 15 51.550   -29 00 40.50  .32630 1.3086 150.8 22.1  32d  66
2024 08 07 13  19 15 33.515   -28 59 36.16  .32695 1.3090 150.7 22.1  32d  66
2024 08 07 14  19 15 15.565   -28 58 31.91  .32761 1.3094 150.6 22.2  32d  66
2024 08 07 15  19 14 57.699   -28 57 27.74  .32827 1.3098 150.5 22.2  32d  66
2024 08 07 16  19 14 39.917   -28 56 23.65  .32893 1.3102 150.4 22.2  32d  66
2024 08 07 17  19 14 22.218   -28 55 19.64  .32959 1.3106 150.3 22.2  32d  66
2024 08 07 18  19 14 04.602   -28 54 15.72  .33025 1.3110 150.2 22.2  32d  66
2024 08 07 19  19 13 47.069   -28 53 11.88  .33091 1.3114 150.1 22.2  32d  66
2024 08 07 20  19 13 29.617   -28 52 08.14  .33157 1.3118 150.0 22.2  32d  66
2024 08 07 21  19 13 12.247   -28 51 04.48  .33223 1.3122 149.9 22.2  32d  66
2024 08 07 22  19 12 54.958   -28 50 00.90  .33290 1.3126 149.8 22.2  33d  66
2024 08 07 23  19 12 37.750   -28 48 57.42  .33356 1.3130 149.8 22.2  33d  66
2024 08 08 00  19 12 20.622   -28 47 54.03  .33422 1.3134 149.7 22.2  33d  66
2024 08 08 01  19 12 03.573   -28 46 50.73  .33489 1.3138 149.6 22.2  33d  66
2024 08 08 02  19 11 46.605   -28 45 47.52  .33555 1.3142 149.5 22.2  33d  66
2024 08 08 03  19 11 29.715   -28 44 44.40  .33622 1.3145 149.4 22.2  33d  66
2024 08 08 04  19 11 12.904   -28 43 41.37  .33688 1.3149 149.3 22.2  33d  66
2024 08 08 05  19 10 56.171   -28 42 38.44  .33755 1.3153 149.2 22.3  33d  66
2024 08 08 06  19 10 39.516   -28 41 35.61  .33822 1.3157 149.1 22.3  33d  66
2024 08 08 07  19 10 22.939   -28 40 32.87  .33889 1.3161 149.0 22.3  33d  66
2024 08 08 08  19 10 06.438   -28 39 30.22  .33955 1.3165 148.9 22.3  33d  66
2024 08 08 09  19 09 50.014   -28 38 27.67  .34022 1.3169 148.8 22.3  33d  66
2024 08 08 10  19 09 33.666   -28 37 25.22  .34089 1.3173 148.7 22.3  33d  66
2024 08 08 11  19 09 17.394   -28 36 22.87  .34156 1.3177 148.7 22.3  33d  66